CW7748 Weather Reports


time (UTC)temp
C
wind
direction
speed
KPH
gust
KPH
rain 1hr
cm
rain 24hr
cm
rain mn
cm
humidity
%
barometer
mb
20260510122911 21 203 0.0 0.0 0.00 0.56 0.03 1 1021.6
20260510121909 -17 0.0 0.0 0.00 0.56 0.03 1021.7
20260510121409 -17 0.0 0.0 0.00 0.56 0.03 1021.6
20260510120908 -17 0.0 0.0 0.00 0.56 0.03 1021.5
20260510115905 -17 0.0 0.0 0.00 0.56 0.03 1021.5
20260510114902 -17 0.0 0.0 0.00 0.56 0.03 1021.3
20260510114402 -17 0.0 0.0 0.00 0.56 0.03 1021.1
20260510113901 -17 0.0 0.0 0.00 0.56 0.03 1021.0
20260510113359 -17 0.0 0.0 0.00 0.56 0.03 1021.0
20260510112858 -17 0.0 0.0 0.00 0.56 0.03 1020.9
20260510112357 -17 0.0 0.0 0.00 0.56 0.03 1020.9
20260510111855 -17 0.0 0.0 0.00 0.56 0.03 1020.8
20260510111355 -17 0.0 0.0 0.00 0.56 0.03 1020.8
20260510110854 -17 0.0 0.0 0.00 0.56 0.03 1020.8
20260510110352 -17 0.0 0.0 0.00 0.56 0.03 1020.6
20260510104848 -17 0.0 0.0 0.00 0.56 0.03 1020.4
20260510104347 -17 0.0 0.0 0.00 0.56 0.03 1020.3
20260510103847 -17 0.0 0.0 0.00 0.56 0.03 1020.1
20260510103345 -17 0.0 0.0 0.00 0.56 0.03 1020.0
20260510102844 -17 0.0 0.0 0.00 0.56 0.03 1020.1
20260510101842 -17 0.0 0.0 0.00 0.56 0.03 1019.9
20260510101341 -17 0.0 0.0 0.00 0.56 0.03 1019.9
20260510100843 -17 0.0 0.0 0.00 0.56 0.03 1019.8
20260510095837 -17 0.0 0.0 0.00 0.56 0.03 1019.6
20260510095336 -17 0.0 0.0 0.00 0.56 0.03 1019.6
20260510094835 -17 0.0 0.0 0.00 0.56 0.03 1019.8
20260510093833 -17 0.0 0.0 0.00 0.56 0.03 1019.7
20260510093331 -17 0.0 0.0 0.00 0.56 0.03 1019.7
20260510092830 -17 0.0 0.0 0.00 0.56 0.03 1019.6
20260510092329 -17 0.0 0.0 0.00 0.56 0.03 1019.7
20260510091828 18 75 0.0 0.0 0.00 0.56 0.03 94 1019.6
20260510091327 18 75 0.0 0.0 0.00 0.56 0.03 94 1019.6
20260510090826 19 75 0.0 0.0 0.00 0.56 0.03 94 1019.4
20260510090325 18 75 0.0 0.0 0.00 0.56 0.03 94 1019.4
20260510085826 19 75 0.0 0.0 0.00 0.56 0.03 94 1019.3
20260510085325 19 75 0.0 0.0 0.00 0.56 0.03 94 1019.2
20260510084826 19 75 0.0 0.0 0.00 0.56 0.03 94 1019.1
20260510083825 19 75 0.0 0.0 0.00 0.56 0.03 94 1019.1
20260510083326 19 75 0.0 0.0 0.00 0.56 0.03 94 1019.0
20260510082326 19 102 0.0 0.0 0.00 0.56 0.03 94 1019.0
20260510081825 19 102 0.0 0.0 0.00 0.56 0.03 94 1019.1
20260510081326 19 102 0.0 0.0 0.00 0.56 0.03 93 1019.0
20260510080824 19 102 0.0 0.0 0.00 0.56 0.03 93 1019.0
20260510075824 19 102 0.0 0.0 0.00 0.56 0.03 93 1018.9
20260510075325 19 102 0.0 0.0 0.00 0.56 0.03 93 1018.8
20260510074825 19 102 0.0 0.0 0.00 0.56 0.03 93 1018.7
20260510074325 19 102 0.0 0.0 0.03 0.56 0.03 93 1018.7
20260510073825 19 102 0.0 0.0 0.03 0.56 0.03 93 1018.6
20260510073324 19 102 0.0 0.0 0.03 0.56 0.03 93 1018.7
20260510072824 19 102 0.0 0.0 0.03 0.56 0.03 93 1018.7
20260510072323 19 102 0.0 0.0 0.03 0.56 0.03 93 1018.8
20260510071824 19 102 0.0 0.0 0.03 0.56 0.03 93 1018.8
20260510070824 20 102 0.0 0.0 0.03 0.56 0.03 93 1018.9
20260510065823 20 102 0.0 0.0 0.03 0.56 0.03 93 1018.9
20260510065324 20 102 0.0 0.0 0.03 0.56 0.03 93 1019.0
20260510064823 20 102 0.0 0.0 0.03 0.56 0.03 93 1019.1
20260510064323 -17 0.0 0.0 0.00 0.53 0.00 1019.2
20260510063822 20 102 0.0 0.0 0.00 0.53 0.00 93 1019.1
20260510062316 20 102 0.0 0.0 0.00 0.53 0.00 93 1019.2
20260510061815 20 102 0.0 0.0 0.00 0.53 0.00 93 1019.1
20260510061320 -17 0.0 0.0 0.00 0.53 0.00 1019.1
20260510060819 20 102 0.0 0.0 0.00 0.53 0.00 94 1019.1
20260510060317 20 102 0.0 0.0 0.00 0.53 0.00 94 1019.2
20260510055316 20 102 0.0 1.6 0.00 0.53 0.00 94 1019.4
20260510054316 20 102 0.0 0.0 0.00 0.53 0.00 94 1019.4
20260510053817 20 102 0.0 3.2 0.00 0.53 0.00 94 1019.5
20260510053317 20 102 0.0 3.2 0.00 0.53 0.00 94 1019.5
20260510052816 20 102 0.0 1.6 0.00 0.53 0.00 94 1019.5
20260510051815 20 102 0.0 1.6 0.00 0.53 0.00 94 1019.6
20260510051315 20 102 0.0 3.2 0.00 0.53 0.00 94 1019.6
20260510050816 20 102 1.6 4.8 0.00 0.53 0.00 94 1019.6
20260510045815 20 110 0.0 3.2 0.00 0.53 0.00 94 1019.8
20260510045315 20 110 1.6 9.7 0.00 0.53 0.00 94 1019.7
20260510044816 20 113 3.2 9.7 0.00 0.53 0.00 94 1019.8
20260510044315 20 114 1.6 8.0 0.00 0.53 0.00 94 1019.7
20260510043815 20 130 3.2 8.0 0.00 0.53 0.00 94 1019.7
20260510043314 20 103 1.6 4.8 0.00 0.53 0.00 94 1019.9
20260510042815 20 100 1.6 4.8 0.00 0.53 0.00 94 1019.9
20260510041814 20 106 1.6 4.8 0.00 0.53 0.00 94 1020.2
20260510040814 20 110 1.6 4.8 0.00 0.53 0.00 94 1020.3
20260510040313 20 118 1.6 4.8 0.00 0.53 0.00 94 1020.4
20260510035813 20 120 1.6 3.2 0.00 0.53 0.53 94 1020.4
20260510035313 20 125 0.0 3.2 0.00 0.53 0.53 94 1020.5
20260510034813 20 165 0.0 3.2 0.00 0.53 0.53 94 1020.6
20260510034315 20 171 0.0 3.2 0.00 0.53 0.53 93 1020.6
20260510033814 20 111 0.0 1.6 0.00 0.53 0.53 93 1020.5
20260510033313 20 110 0.0 1.6 0.00 0.53 0.53 93 1020.5
20260510032812 20 83 0.0 3.2 0.00 0.53 0.53 93 1020.4
20260510032313 20 82 0.0 3.2 0.00 0.53 0.53 93 1020.4
20260510031812 20 82 0.0 0.0 0.00 0.53 0.53 93 1020.5
20260510031312 20 82 0.0 0.0 0.00 0.53 0.53 93 1020.5
20260510030812 20 82 0.0 0.0 0.00 0.53 0.53 93 1020.4
20260510030313 20 82 0.0 0.0 0.00 0.56 0.53 93 1020.5
20260510025812 20 82 0.0 0.0 0.00 0.71 0.53 93 1020.4
20260510025313 20 82 0.0 0.0 0.00 0.71 0.53 93 1020.4
20260510024813 20 82 0.0 0.0 0.00 0.71 0.53 93 1020.4
20260510024312 20 82 0.0 0.0 0.00 0.71 0.53 93 1020.3
20260510023812 20 82 0.0 0.0 0.00 0.71 0.53 93 1020.2
20260510023312 20 82 0.0 0.0 0.00 0.71 0.53 93 1020.2
20260510022812 20 82 0.0 1.6 0.00 0.71 0.53 93 1020.3
20260510022311 20 82 0.0 1.6 0.00 0.71 0.53 93 1020.1
20260510021811 20 82 0.0 0.0 0.00 0.71 0.53 93 1020.3
20260510021310 20 82 0.0 0.0 0.00 0.71 0.53 93 1020.2
20260510020812 20 82 0.0 0.0 0.00 0.71 0.53 93 1020.1
20260510015312 20 82 0.0 3.2 0.00 0.71 0.53 93 1020.0
20260510014810 20 83 0.0 1.6 0.00 0.71 0.53 93 1019.9
20260510014312 20 83 0.0 1.6 0.00 0.71 0.53 93 1020.0
20260510013812 20 82 0.0 0.0 0.00 0.71 0.53 93 1019.6
20260510013311 20 82 0.0 0.0 0.00 0.71 0.53 93 1019.3
20260510012810 20 82 0.0 0.0 0.00 0.71 0.53 93 1019.3
20260510012310 20 82 0.0 0.0 0.00 0.71 0.53 93 1019.4
20260510011811 20 82 0.0 0.0 0.00 0.71 0.53 93 1019.5
20260510011309 20 82 0.0 3.2 0.00 0.71 0.53 93 1019.3
20260510010811 20 82 0.0 3.2 0.00 0.71 0.53 93 1019.3
20260510010309 20 82 0.0 1.6 0.00 0.71 0.53 93 1019.0
20260510005308 20 82 0.0 0.0 0.00 0.71 0.53 93 1019.2
20260510004810 20 82 0.0 1.6 0.00 0.71 0.53 93 1019.3
20260510004310 20 82 0.0 3.2 0.00 0.71 0.53 93 1019.2
20260510003810 20 82 3.2 3.2 0.00 0.71 0.53 93 1019.3
20260510003310 20 39 0.0 3.2 0.00 0.71 0.53 93 1018.9
20260510002309 20 39 0.0 1.6 0.00 0.71 0.53 93 1019.0
20260510001317 20 39 0.0 1.6 0.00 0.71 0.53 93 1018.8
20260510000334 21 38 0.0 3.2 0.00 0.71 0.53 93 1019.1
20260509235809 21 38 0.0 3.2 0.00 0.71 0.53 93 1019.0
20260509235309 21 31 0.0 3.2 0.00 0.71 0.53 93 1019.1
20260509234808 21 31 1.6 3.2 0.00 0.71 0.53 92 1019.1
20260509233808 21 30 0.0 3.2 0.05 0.71 0.53 92 1019.1
20260509232319 21 63 1.6 3.2 0.08 0.71 0.53 92 1019.1
20260509231824 21 63 0.0 3.2 0.10 0.71 0.53 92 1019.2
20260509231307 21 54 1.6 3.2 0.13 0.71 0.53 92 1019.2
20260509230308 21 1 0.0 1.6 0.15 0.71 0.53 92 1019.4
20260509225808 21 1 0.0 1.6 0.25 0.71 0.53 92 1019.5
20260509225306 21 1 0.0 3.2 0.38 0.71 0.53 92 1019.8
20260509224807 21 1 1.6 3.2 0.41 0.71 0.53 92 1019.7
20260509224307 21 107 1.6 3.2 0.38 0.69 0.51 92 1019.4
20260509223807 21 161 0.0 0.0 0.36 0.66 0.51 91 1019.8
20260509223306 21 158 0.0 3.2 0.33 0.61 0.46 91 1019.8
20260509222806 21 158 0.0 3.2 0.33 0.61 0.46 91 1019.8
20260509222307 21 158 0.0 3.2 0.33 0.61 0.46 91 1019.8
20260509221307 21 158 0.0 1.6 0.28 0.58 0.43 91 1020.0
20260509220806 21 158 0.0 3.2 0.28 0.58 0.43 91 1019.9
20260509215806 21 210 1.6 3.2 0.15 0.43 0.28 92 1019.8
20260509214306 21 317 3.2 4.8 0.00 0.30 0.15 92 1019.6
20260509213804 21 329 0.0 4.8 0.05 0.30 0.15 92 1019.6
20260509213305 21 330 1.6 4.8 0.05 0.30 0.15 92 1019.5
20260509212805 21 333 3.2 4.8 0.05 0.30 0.15 92 1019.4
20260509211805 21 336 1.6 3.2 0.05 0.30 0.15 91 1019.2
20260509211304 21 334 0.0 3.2 0.05 0.30 0.15 91 1019.2
20260509210805 21 334 1.6 4.8 0.05 0.30 0.15 91 1019.1
20260509205803 21 320 3.2 4.8 0.05 0.30 0.15 91 1019.0
20260509205306 21 0 1.6 4.8 0.05 0.30 0.15 91 1019.0
20260509204805 21 1 1.6 6.4 0.05 0.30 0.15 90 1018.9
20260509204304 21 341 3.2 8.0 0.10 0.30 0.15 90 1018.9
20260509203804 21 320 4.8 8.0 0.05 0.25 0.10 89 1018.9
20260509203304 21 334 4.8 8.0 0.05 0.25 0.10 89 1019.1
20260509202802 21 324 4.8 6.4 0.05 0.25 0.10 89 1019.2
20260509202306 21 334 1.6 8.0 0.05 0.25 0.10 89 1019.1
20260509201803 21 333 6.4 8.0 0.05 0.23 0.08 88 1019.0
20260509201304 21 347 3.2 8.0 0.05 0.23 0.08 89 1019.1
20260509200804 22 0 4.8 14.5 0.05 0.23 0.08 89 1019.0
20260509200303 22 354 4.8 14.5 0.05 0.25 0.08 88 1019.0
20260509195802 22 337 6.4 14.5 0.05 0.28 0.08 87 1019.0
20260509194802 23 317 6.4 16.1 0.05 0.28 0.08 83 1019.0
20260509194303 23 313 9.7 20.9 0.00 0.23 0.05 83 1018.9
20260509193803 23 331 12.9 22.5 0.00 0.23 0.05 81 1018.8
20260509192803 25 309 16.1 24.1 0.00 0.23 0.05 84 1018.8
20260509192305 26 313 8.0 11.3 0.00 0.23 0.05 85 1018.7
20260509191803 26 351 4.8 16.1 0.00 0.23 0.05 86 1018.8
20260509191303 26 344 6.4 16.1 0.00 0.23 0.05 86 1018.8
20260509190802 26 319 3.2 9.7 0.00 0.23 0.05 86 1018.9
20260509190301 26 0 1.6 6.4 0.00 0.25 0.05 86 1018.9
20260509185801 26 178 1.6 6.4 0.00 0.25 0.05 85 1019.0
20260509185301 26 207 3.2 9.7 0.00 0.25 0.05 86 1019.2
20260509184801 25 285 3.2 9.7 0.00 0.25 0.05 87 1019.1
20260509184301 25 281 1.6 9.7 0.00 0.25 0.05 86 1019.0
20260509183802 26 317 6.4 8.0 0.00 0.25 0.05 87 1019.1
20260509183302 25 190 1.6 11.3 0.00 0.25 0.05 86 1019.1
20260509182800 25 244 3.2 11.3 0.00 0.25 0.05 87 1019.2
20260509182300 25 213 3.2 6.4 0.00 0.25 0.05 87 1019.2
20260509181801 25 324 4.8 6.4 0.00 0.25 0.05 86 1019.1
20260509175800 25 345 3.2 6.4 0.03 0.25 0.05 87 1019.3
20260509175259 25 330 0.0 6.4 0.03 0.25 0.05 84 1019.3
20260509173800 25 326 3.2 11.3 0.05 0.25 0.05 84 1019.4
20260509173300 25 316 6.4 14.5 0.05 0.25 0.05 83 1019.3
20260509172759 26 316 6.4 14.5 0.05 0.25 0.05 82 1019.4
20260509171759 26 312 3.2 6.4 0.05 0.25 0.05 82 1019.3
20260509171300 26 310 1.6 3.2 0.03 0.23 0.03 83 1019.4
20260509170800 26 171 0.0 3.2 0.03 0.23 0.03 81 1019.4
20260509170300 26 171 0.0 1.6 0.03 0.23 0.03 81 1019.4
20260509165800 26 169 0.0 3.2 0.03 0.23 0.03 81 1019.5
20260509165255 27 169 0.0 6.4 0.03 0.23 0.03 79 1019.5
20260509164259 27 212 3.2 8.0 0.00 0.23 0.00 77 1019.5
20260509163759 27 183 3.2 6.4 0.00 0.23 0.00 76 1019.4
20260509163259 27 231 3.2 9.7 0.00 0.23 0.00 76 1019.4
20260509162758 27 227 3.2 9.7 0.00 0.23 0.00 77 1019.6
20260509162258 27 109 1.6 6.4 0.00 0.23 0.00 77 1019.6
20260509161757 27 228 1.6 6.4 0.00 0.23 0.00 77 1019.6
20260509161258 27 244 3.2 9.7 0.00 0.23 0.00 78 1019.6
20260509160757 27 202 3.2 9.7 0.00 0.23 0.00 78 1019.5
20260509160258 27 220 0.0 4.8 0.00 0.23 0.00 79 1019.5
20260509155757 27 214 1.6 4.8 0.00 0.23 0.00 80 1019.7
20260509155258 26 192 1.6 4.8 0.00 0.23 0.00 81 1019.7
20260509154757 26 162 1.6 6.4 0.00 0.23 0.00 81 1019.6
20260509154256 26 173 3.2 6.4 0.00 0.23 0.00 82 1019.5
20260509153257 -17 0.0 0.0 0.00 0.23 0.00 1019.4
20260509152757 -17 0.0 0.0 0.00 0.23 0.00 1019.1
20260509152255 -17 0.0 0.0 0.00 0.23 0.00 1018.8
20260509151253 -17 0.0 0.0 0.00 0.23 0.00 1019.2
20260509150752 -17 0.0 0.0 0.00 0.23 0.00 1019.2
20260509150250 26 152 3.2 6.4 0.00 0.23 0.00 84 1019.3
20260509145750 26 152 3.2 6.4 0.00 0.23 0.00 84 1019.2
20260509145250 26 200 3.2 6.4 0.00 0.23 0.00 83 1019.1
20260509144748 26 185 3.2 4.8 0.00 0.23 0.00 85 1019.1
20260509143749 25 206 3.2 6.4 0.00 0.23 0.00 85 1019.3
20260509143247 25 216 3.2 6.4 0.00 0.23 0.00 86 1019.5
20260509142749 25 206 0.0 6.4 0.00 0.23 0.00 86 1019.5
20260509142248 25 161 3.2 6.4 0.00 0.23 0.00 87 1019.6
20260509141749 24 188 3.2 4.8 0.00 0.23 0.00 88 1019.6
20260509141248 24 188 0.0 4.8 0.00 0.23 0.00 89 1019.7
20260509135746 23 214 3.2 6.4 0.00 0.23 0.00 88 1019.6
20260509135248 23 172 0.0 4.8 0.00 0.23 0.00 89 1019.5
20260509134747 23 162 1.6 6.4 0.00 0.23 0.00 89 1019.4
20260509134246 23 164 3.2 6.4 0.00 0.23 0.00 90 1019.4
20260509133748 23 234 3.2 6.4 0.00 0.23 0.00 90 1019.6
20260509133248 23 165 1.6 4.8 0.00 0.23 0.00 90 1019.4
20260509132746 23 212 3.2 4.8 0.00 0.23 0.00 90 1019.4
20260509132247 23 172 3.2 4.8 0.00 0.23 0.00 91 1019.3
20260509131746 22 168 1.6 4.8 0.00 0.23 0.00 92 1019.4
20260509131247 22 111 1.6 4.8 0.00 0.23 0.00 91 1019.3
20260509130746 22 185 0.0 4.8 0.00 0.23 0.00 91 1019.1
20260509130247 22 164 1.6 4.8 0.00 0.23 0.00 91 1019.2
20260509125746 22 172 1.6 4.8 0.00 0.23 0.00 91 1019.1
20260509125246 22 185 3.2 4.8 0.00 0.23 0.00 92 1019.1
20260509124745 22 175 3.2 3.2 0.00 0.23 0.00 92 1019.0
20260509124245 22 128 0.0 3.2 0.00 0.23 0.00 92 1019.1
20260509123745 22 128 0.0 3.2 0.00 0.23 0.00 92 1019.0
20260509123246 22 135 1.6 3.2 0.00 0.23 0.00 1 1018.9